Location: Unspecified
(58.9933°N, 5.6375°E)
Time: 22:40:53
(UTC+02:00)

Okean 3 - Visible Passes

Search period start: 30 April 2017 00:00
Search period end: 10 May 2017 00:00
Orbit: 577 x 603 km, 82.5° (Epoch: 29 April)

Date Brightness Start Highest point End Pass type
(mag) Time Alt. Az. Time Alt. Az. Time Alt. Az.
30 Apr 3.5 00:16:42 19° SSW 00:19:42 79° WNW 00:23:56 10° NNE visible
30 Apr 6.0 01:55:02 10° W 01:57:44 16° NW 02:00:26 10° NNW visible
30 Apr 4.8 22:48:02 11° SE 22:51:04 23° E 22:54:25 10° NE visible
01 May 3.9 00:24:34 14° SSW 00:28:02 59° WNW 00:32:12 10° N visible
01 May 6.1 02:04:13 10° W 02:06:15 13° NW 02:08:18 10° NNW visible
01 May 4.4 22:55:52 12° SSE 22:59:12 31° E 23:02:55 10° NNE visible
02 May 4.4 00:32:24 10° SW 00:36:23 44° WNW 00:40:26 10° N visible
02 May 6.3 02:13:54 10° WNW 02:14:50 11° NW 02:15:44 10° NNW visible
02 May 4.0 23:03:41 11° SSE 23:07:23 41° E 23:11:22 10° NNE visible
03 May 4.9 00:40:57 10° SW 00:44:46 34° WNW 00:48:38 10° N visible
03 May 3.6 23:11:32 10° S 23:15:37 55° E 23:19:45 10° NNE visible
04 May 5.4 00:49:38 10° WSW 00:53:12 26° WNW 00:56:48 10° N visible
04 May 3.4 23:19:41 10° S 23:23:51 75° E 23:28:06 10° NNE visible
05 May 5.8 00:58:26 10° WSW 01:01:39 21° WNW 01:04:54 10° N visible
05 May 3.5 23:27:57 10° SSW 23:32:09 81° WNW 23:36:24 10° NNE visible
06 May 6.1 01:07:24 10° W 01:10:09 17° NW 01:12:55 10° NNW visible
06 May 4.0 23:36:19 10° SSW 23:40:28 60° WNW 23:44:40 10° N visible
07 May 6.2 01:16:33 10° W 01:18:41 14° NW 01:20:50 10° NNW visible
07 May 4.5 23:44:47 10° SW 23:48:49 45° WNW 23:52:54 10° N visible
08 May 6.5 01:26:07 10° WNW 01:27:15 11° NW 01:28:22 10° NNW visible
08 May 5.1 23:53:20 10° SW 23:57:12 34° WNW 00:01:06 10° N visible
